Content
SEND FEEDBACK

Daily
Averages
Monthly
Summary
United States of America

MILWAUKEE, WISCONSIN


Home > North America > United States > Wisconsin
Elevation: 672 feet     Latitude: 42 57N     Longitude: 087 54W

WEATHER
 
SELECT A DAY
Number of Records: 202,124;   Date Range: 1/1/95 - 9/28/14
 
SHARE

PRINT THIS DATA

[ ← Previous Day ]
WEATHER ALMANAC - JULY 3, 2013
[ Next Day → ]
[ °C ]   °F
Weather ElementAverageHighLow
Temperature61.7 °F64.9 °F (4:52 pm)60.1 °F (5:52 am)
Dewpoint59 °F61 °F (4:52 pm)57 °F (1:52 am)
Humidity91.2 %100 % (10:42 pm)84 % (2:52 pm)
Barometer30.06 in30.09 in (8:52 am)30.04 in (4:23 am)
Wind Speed5.8 mph10.4 mph (1:52 am)
Weather ElementAverage
Visibility4.7 mi
Wind DirectionENE (81.4 °)

Weather ElementTotal
Precipitation0.99 in
Heating Degree Days2.5 (Base 65)
Growing Degree Days12.5 (Base 50)
Averaged from 51 records on July 3, 2013
WEATHER CONDITIONS BREAKOUT
WIND DIRECTION BREAKOUT
WEATHER BY HOUR - JULY 3, 2013
[ °C ]   °F
Local TimeTemperatureDewpointHumidityBarometerVisibilityWind DirectionWind SpeedGust SpeedPrecipitationEventsConditions
12:52 AM61.0 °F57.9 °F90 %30.07 in10.0 miNNE (20°)8.1 mph0.00 inOvercast
1:52 AM61.0 °F57.0 °F87 %30.06 in10.0 miNNE (20°)10.4 mphOvercast
2:52 AM61.0 °F57.0 °F87 %30.06 in10.0 miNNE (30°)9.2 mphOvercast
3:04 AM60.8 °F57.2 °F88 %30.05 in10.0 miNNE (30°)8.1 mphOvercast
3:52 AM61.0 °F57.0 °F87 %30.05 in10.0 miNNE (20°)8.1 mphOvercast
4:23 AM60.8 °F57.2 °F88 %30.04 in10.0 miNNE (20°)9.2 mphOvercast
4:52 AM61.0 °F57.0 °F87 %30.05 in10.0 miNNE (20°)9.2 mphMostly Cloudy
5:12 AM60.8 °F57.2 °F88 %30.05 in10.0 miNNE (20°)10.4 mphOvercast
5:52 AM60.1 °F57.0 °F90 %30.06 in10.0 miNNE (20°)8.1 mphMostly Cloudy
6:52 AM61.0 °F57.0 °F87 %30.06 in10.0 miNE (40°)10.4 mphMostly Cloudy
7:52 AM61.0 °F57.0 °F87 %30.07 in10.0 miNNE (30°)9.2 mphOvercast
8:44 AM60.8 °F57.2 °F88 %30.08 in9.0 miNNE (30°)6.9 mph0.00 inRainLight Rain
8:52 AM60.1 °F57.0 °F90 %30.09 in2.5 miNNE (30°)6.9 mph0.00 inRainLight Rain
8:56 AM60.8 °F57.2 °F88 %30.09 in1.8 miNNE (30°)6.9 mph0.02 inRainHeavy Rain
9:37 AM60.8 °F57.2 °F88 %30.08 in1.5 miNorth (360°)5.8 mph0.21 inRainRain
9:48 AM60.8 °F57.2 °F88 %30.08 in2.5 miNorth (360°)4.6 mph0.24 inRainRain
9:52 AM60.1 °F57.9 °F93 %30.09 in2.5 miNorth (350°)5.8 mph0.25 inRainRain
10:01 AM60.8 °F57.2 °F88 %30.08 in1.8 miNorth (350°)6.9 mph0.02 inRainRain
10:04 AM60.8 °F57.2 °F88 %30.08 in2.0 miNorth (350°)5.8 mph0.03 inRainRain
10:18 AM60.8 °F59.0 °F94 %30.08 in2.0 miNorth (350°)5.8 mph0.04 inRainLight Rain
10:48 AM62.6 °F60.8 °F94 %30.08 in4.0 miNorth (10°)6.9 mph0.09 inRainLight Rain
10:52 AM62.1 °F60.1 °F93 %30.08 in4.0 miNorth (10°)6.9 mph0.09 inRainLight Rain
11:25 AM62.6 °F60.8 °F94 %30.08 in10.0 miNNE (20°)6.9 mph0.00 inOvercast
11:52 AM62.1 °F59.0 °F90 %30.08 in10.0 miNNE (30°)6.9 mph0.00 inOvercast
12:52 PM63.0 °F60.1 °F90 %30.07 in10.0 miNNE (20°)6.9 mphOvercast
1:52 PM63.0 °F59.0 °F87 %30.07 in6.0 miNNE (20°)8.1 mphOvercast
2:52 PM64.0 °F59.0 °F84 %30.06 in5.0 miNNE (30°)6.9 mphHaze
3:52 PM63.0 °F60.1 °F90 %30.06 in3.0 miENE (60°)5.8 mphOvercast
4:11 PM62.6 °F60.8 °F94 %30.05 in3.0 miNNE (20°)3.5 mphOvercast
4:52 PM64.9 °F61.0 °F87 %30.05 in3.0 miNorth (10°)3.5 mphOvercast
5:52 PM64.9 °F61.0 °F87 %30.04 in3.0 miNE (40°)6.9 mphOvercast
6:23 PM64.4 °F60.8 °F88 %30.04 in3.0 miNE (50°)6.9 mphOvercast
6:44 PM62.6 °F60.8 °F94 %30.05 in3.0 miENE (60°)5.8 mphOvercast
6:52 PM62.1 °F60.1 °F93 %30.04 in3.0 miENE (70°)6.9 mphOvercast
7:04 PM62.6 °F60.8 °F94 %30.04 in3.0 miENE (60°)6.9 mphOvercast
7:24 PM62.6 °F60.8 °F94 %30.05 in3.0 miENE (60°)4.6 mphOvercast
7:52 PM62.1 °F60.1 °F93 %30.04 in3.0 miCalmOvercast
8:18 PM62.6 °F60.8 °F94 %30.04 in3.0 miCalmOvercast
8:34 PM62.6 °F60.8 °F94 %30.04 in3.0 miCalmOvercast
8:52 PM62.1 °F60.1 °F93 %30.05 in3.0 miESE (110°)4.6 mphMostly Cloudy
9:11 PM62.6 °F60.8 °F94 %30.06 in3.0 miNE (50°)3.5 mphMostly Cloudy
9:52 PM61.0 °F59.0 °F93 %30.07 in3.0 miCalmScattered Clouds
10:11 PM60.8 °F59.0 °F94 %30.06 in3.0 miCalmMostly Cloudy
10:29 PM60.8 °F59.0 °F94 %30.07 in3.0 miSSE (150°)5.8 mphOvercast
10:36 PM60.8 °F59.0 °F94 %30.07 in2.5 miSSE (160°)6.9 mphOvercast
10:42 PM60.8 °F60.8 °F100 %30.07 in1.8 miSouth (170°)5.8 mphOvercast
10:52 PM61.0 °F59.0 °F93 %30.07 in1.2 miSSE (150°)4.6 mphOvercast
11:02 PM60.8 °F59.0 °F94 %30.07 in0.5 miSSE (150°)3.5 mphFogFog
11:18 PM60.8 °F60.8 °F100 %30.07 in0.2 miCalmFogFog
11:38 PM60.8 °F60.8 °F100 %30.07 in0.2 miSSE (160°)3.5 mphFogFog
11:52 PM61.0 °F60.1 °F97 %30.07 in0.2 miCalmFogFog
Hourly data recorded from KMKE, located miles away from Milwaukee, Wisconsin







STORIES FROM OUR PARTNERS